Search for airport 
image banner adimage banner ad
image banner ad

SVJC - Paraguana / Josefa Camejo Intl

Located in Punto Fijo, Venezuela

ICAO - SVJC, IATA - LSP

Data provided by Airmate  

General information

Coordinates: N11°46'50" W70°9'6"
Elevation is 92 feet MSL.
 
Rated:
View ratings: [VIEW]


View others Airports in Falcon

Operational data

Open for public use
Current time UTC:
Current local time:
Weather
TAF: TAF SVJC 032200Z 0312/0412 08009KT 9999 SCT016 TX34/19Z TN24/09Z BECMG 0400/0400 09012KT SCT013 TEMPO 0400/0404 08017KT SCT013 SCT100
View NOTAMs / SUP AIP / TFR affecting this airport [VIEW]
Communications frequencies: [VIEW]

Runways:

RWY identifierQFULength (ft)Width (ft)SurfaceLDA (ft)
0985°9186148ASP
27265°9186148

Airport contact information

Address: Punto Fijo Venezuela

Satellite view of SVJC